www.pogodaiklimat.ru

Погода и климат >> Архив погоды >> Португалия >> Санта-Мария


ПОГОДА в Санта-Марии

  • Прогноз погоды в Санта-Марии
  • Монитор погоды в Санта-Марии

АРХИВ ПОГОДЫ в Санта-Марии

Время (UTC), дата Ветер
(напр.,м/с)
 
Видим.   Явления Облачность Т
(С)
Тd
(С)
f
(%)
Тe
(С)
Тes
(С)
Комфортность P
(гПа)
Po
(гПа)
Тmin
(С)
Tmax
(С)
R
(мм)
R24
(мм)
S
(см)
09 17.04 СЗ 7
{12}
>70 км 6/5 800 м
[Cu Sc Ci fib]
+14.8 +9.7 71 +13 +13 1015.8 1005.0
12 17.04 СЗ 7
{11}
>70 км 3/1 900 м
[Cu hum Ci fib]
+17.2 +9.0 59 +16 +20 1017.1 1006.3
15 17.04 СЗ 8 >70 км 8/3 800 м
[Cu hum Ac trans Ci fib]
+16.9 +9.8 63 +16 +17 1018.0 1007.2
18 17.04 З 7 >70 км 6/4 660 м
[Cu hum Ac lent Ci sp]
+16.7 +10.5 67 +15 +16 1018.6 1007.8 +18.1
21 17.04 С 5 н/о н/о +15.5 +11.8 79 +14 +14 1020.2 1009.3
00 18.04 З 5 20 км 9/9 240 м
[Cu Sc]
+15.4 +14.1 92 +14 +14 1021.4 1010.5
03 18.04 З 6 20 км 9/9 100 м
[]
+16.0 -29.3 3 +15 +15 1020.7 1009.9
06 18.04 С 4
{7}
20 км н/о +15.7 +15 +15 1021.1 1010.2 +15.2
09 18.04 З 3 17 км 9/9 330 м
[Cu Sc Ci fib]
+16.8 +17 +17 1022.5 1011.6
12 18.04 З 2 20 км 9/9 150 м
[Cu Sc]
+18.2 +19 +20 1023.7 1012.9
15 18.04 З 4
{6}
20 км 9/9 240 м
[Cu Sc Ci fib]
+19.2 +19 +20 1023.7 1012.9
18 18.04 З 2 20 км 1/1 600 м
[Cu Sc Ci fib]
+19.0 -27.2 3 +19 +23 1023.6 1012.8 +19.7
21 18.04 20 км н/о +16.0 1025.3 1014.4
00 19.04 20 км н/о +16.5 1026.3 1015.4
03 19.04 ЮВ 1 20 км 9/9 150 м
[Cu Sc]
+16.2 +17 +17 1025.9 1015.0
06 19.04 ЮВ 1 20 км 9/9 150 м
[]
+16.2 +16.0 99 +17 +17 1025.6 1014.7 +15.3
09 19.04 ЮЗ 1 20 км 1/1 540 м
[Cu Sc Ci fib]
+17.2 +18 +22 1026.2 1015.4
12 19.04 ЮЗ 2 20 км 6/6 360 м
[Cu Sc]
+19.5 +19 +25 1027.3 1016.6
15 19.04 20 км н/о +18.9 1026.9 1016.1
18 19.04 С 2 н/о н/о +17.7 -26.7 3 +18 +18 1027.0 1016.2 +20.4 1
21 19.04 ЮВ 3
{5}
25 км 9/9 450 м
[Cu Sc]
+17.1 +17 +17 1027.9 1017.0
00 20.04 ЮВ 3 30 км 9/9 420 м
[Cu Sc]
+16.3 +16 +16 1028.2 1017.3
03 20.04 В 1 30 км 9/5 450 м
[Cu Sc Cs]
+15.0 +16 +16 1027.3 1016.4
06 20.04 В 3
{5}
20 км 1/1 450 м
[Cu Sc Ci fib]
+14.5 +14 +14 1026.8 1015.8 +14.5
09 20.04 25 км н/о +16.7 1027.3 1016.4
12 20.04 25 км н/о +19.0 1028.2 1017.3
15 20.04 СВ 6
{10}
30 км 8/8 300 м
[Cu Sc]
+19.2 +18 +19 1027.7 1016.9
18 20.04 СВ 8 30 км 6/5 420 м
[Cu Sc Ac cuf]
+18.5 +13.9 75 +18 +19 1027.2 1016.4 +19.9
21 20.04 нст 9
{14}
25 км 8/6 300 м
[Cu Sc Ci fib]
+16.0 +13.0 82 +14 +14 1027.5 1016.6
00 21.04 С 9 н/о н/о +15.2 +11.6 79 +13 +13 1027.8 1016.9
03 21.04
{11}
25 км н/о +15.3 +12.1 81 1026.8 1015.9
06 21.04 20 км н/о +15.0 1026.2 1015.3 +14.8
09 21.04 СВ 6
{10}
н/о н/о +15.1 +12.0 82 +13 +14 1026.8 1015.9
12 21.04 СВ 6
{10}
25 км 9/9 360 м
[Cu Sc]
+16.1 +12.3 78 +15 +15 1026.3 1015.4
15 21.04 нст 8 25 км 9/9 400 м
[Cu Sc]
+16.5 +12.8 79 +15 +15 1025.7 1014.8
18 21.04 С 5
{8}
25 км 9/9 400 м
[Cu Sc]
+15.9 +12.8 82 +15 +15 1024.5 1013.6 +17.8
21 21.04 С 3
{5}
н/о н/о +15.5 +12.6 83 +15 +15 1024.7 1013.8
00 22.04 С 1 55 км 9/9 500 м
[Cu Sc]
+15.1 +12.5 84 +16 +16 1023.8 1012.9
03 22.04 СЗ 4 55 км 9/6 500 м
[Cu Sc Cs]
+14.7 +13.1 90 +13 +13 1021.9 1011.0
06 22.04 СЗ 6-11
{14}
30 км 9/6 180 м
[Cu Sc Ci fib]
+15.1 +14 +14 1021.0 1010.1 +13.6
09 22.04 СЗ 8 30 км 9/4 240 м
[Cu Sc Ac lent Ci fib]
+16.4 +15 +15 1020.7 1009.9
12 22.04 С 10 30 км 8/5 180 м
[Cu Sc Ac lent Ci fib]
+17.6 +16 +17 1021.2 1010.4
15 22.04 С 7
{11}
30 км 8/6 840 м
[Cu Sc Cs]
+17.1 +10.0 63 +16 +18 1020.6 1009.8
18 22.04 СЗ 10 30 км 9/5 840 м
[Cu Sc Cs]
+15.5 +7.8 60 +13 +13 1020.1 1009.3 +19.0
21 22.04 С 7 40 км 9/3 1000 м
[Cu Sc Cs]
+13.6 +7.5 67 +11 +11 1020.7 1009.8
00 23.04 С 5
{8}
40 км 9/4 900 м
[Cu Sc Cs]
+13.5 +8.4 71 +12 +12 1020.9 1009.9
03 23.04 СЗ 5-8
{9}
40 км 8/4 700 м
[Cu Sc Cs]
+13.2 +8.7 74 +11 +11 1019.4 1008.4
06 23.04 СЗ 8 40 км 8/4 660 м
[Cu Sc Cs]
+13.1 +11 +11 1018.2 1007.2 +12.5
09 23.04 СЗ 9 40 км 5/4 630 м
[Cu Sc Ci fib]
+14.9 +9.9 72 +13 +13 1018.1 1007.2
12 23.04 СЗ 9 40 км 9/8 570 м
[Cu Sc Ci fib]
+16.8 +11.8 72 +15 +16 1017.7 1007.0
15 23.04 З 10
{15}
25 км 9/9 540 м
[Cu Sc]
+16.7 +12.3 75 +15 +15 1016.4 1005.7
18 23.04 З 10 30 км 9/6 420 м
[Cu Sc Ci fib]
+17.2 +16 +16 1015.4 1004.6 +17.8
21 23.04 СЗ 9
{14}
30 км 1/1 420 м
[Cu Sc Ci fib]
+15.1 +13 +13 1015.2 1004.4
00 24.04 С 9 н/о н/о +15.7 +12.6 82 +14 +14 1015.2 1004.4
03 24.04 З 8 30 км 9/9 270 м
[Cu Sc]
+15.4 +15.4 100 +13 +13 1014.0 1003.2
06 24.04 З 7
{11}
30 км 9/9 240 м
[Cu Sc]
+15.4 +14 +14 1013.1 1002.3 +15.0

 

Местоположение метеостанции Санта-Мария (Португалия): широта 36.97 долгота -25.16 высота над уровнем моря 100 м.

В архиве по умолчанию представлена погода в Санта-Марии за последнюю неделю. Архивные данные за месяц целиком и за предыдущие месяцы, начиная с января 2011 года, Вы можете получить, выбрав интересующий диапазон дат из раскрывающегося списка и нажав кнопку "Ввод!".


*Определитесь, кто Вы:
робот инопланетянин человек

Внимание! Время в таблицах - всемирное. Для получения местного времени необходимо прибавить поправку, которая равна 0 ч.

Смотрите также архив погоды в соседних городах и на ближайших метеорологических станциях:

Погода в Понта-Делгаде (Португалия) (97 км)
Погода в Ангра-ду-Эроижму (Португалия) (261 км)
Погода в Аэропорту Лажеша (Португалия) (263 км)
Погода в Сан-Жоржи (Португалия) (324 км)
Погода в Пико (Португалия) (338 км)
Погода на Острове Грасьоса (Португалия) (344 км)
Погода в Орте (Португалия) (350 км)
Погода в Каштелу-Бранку (Португалия) (357 км)
Погода на Флошише (Португалия) (590 км)
Погода в Фуншале (Португалия) (895 км)

Пояснения к столбцам:

Ветер - указаны скорость ветра в м/с - средняя за 10 мин, порывы в срок и между сроками (в фигурных скобках) и направление, откуда дует ветер: С - северный, СВ - северо-восточный, В - восточный, ЮВ - юго-восточный, Ю - южный, ЮЗ - юго-западный, З - западный, СЗ - северо-западный.
Видимость - горизонтальная дальность видимости в метрах или километрах. При видимости от 1 до 10 км при отсутствии осадков обычно наблюдается дымка, при ухудшении видимости до 1 км и менее - туман. В сухую погоду видимость может ухудшаться дымом, пылью или мглою.
Явления - указаны атмосферные явления, наблюдавшиеся в срок или в последний час перед сроком; фигурными скобками обозначены явления, наблюдавшиеся между сроками (за 1-3 часа до срока); квадратными скобками обозначены град или гололедные отложения с указанием их диаметра в мм.
Облачность - указаны через наклонную черту общая и нижняя облачность в баллах и высота нижней границы облаков в метрах; квадратными скобками обозначены формы облаков: Ci - перистые, Cs - перисто-слоистые, Cc - перисто-кучевые, Ac - высококучевые, As - высокослоистые, Sc - слоисто-кучевые, Ns - слоисто-дождевые, Cu - кучевые, Cb - кучево-дождевые. Подробнее классификацию облаков см. в Атласе облаков (PDF).
T - Температура воздуха - температура, измеренная на высоте 2 м над землей.
Td - Температура точки росы - температура, при понижении до которой содержащийся в воздухе водяной пар достигнет насыщения.
f - Относительная влажность воздуха - влажноcть воздуха, измеренная на высоте 2 м над землей.
Te - Эффективная температура - температура, которую ощущает одетый по сезону человек в тени. Характеристика душности погоды. При расчете учитывается влияние влажности воздуха и скорости ветра на теплоощущения человека.
Tes - Эффективная температура на солнце - температура, которую ощущает человек, с поправкой на солнечный нагрев. Характеристика знойности погоды. Зависит от высоты солнца над горизонтом, облачности и скорости ветра. Ночью, в пасмурную погоду, а также при ветре 12 м/с и более поправка равна нулю.
P - Атмосферное давление - приведенное к уровню моря атмосферное давление.
Po - Атмосферное давление - измеренное на уровне метеостанции атмосферное давление.
Tmin - Минимальная температура - минимум температуры воздуха на высоте 2 м над землей.
Tmax - Максимальная температура - максимум температуры воздуха на высоте 2 м над землей.
R - Количество осадков - Количество выпавших осадков за период времени, мм. При наведении курсора мыши на число - период времени, за который выпало указанное количество осадков.
R24 - Количество осадков - Количество выпавших осадков за 24 часа, мм.
S - Снежный покров - Высота снежного покрова, см. При наведении курсора мыши на число - состояние снежного покрова и степень покрытия местности в баллах.